sat.trackr.live / text

‹ back to catalog

STARLINK-3185

NORAD 51144 · 2022-005AS

PAYLOAD ACTIVE UNKNOWN

§ Identity

Operator
Country
US
Launch date
2022-01-19
Launch site
AFETR
Launch vehicle
Mass (kg)
RCS (m²)

Purposes: comms

External: N2YO · Heavens-Above · Gunter

§ Orbital elements

Epoch: 2026-05-24T21:10:49.874016Z

Period
95.44 min
Inclination
53.2160°
Eccentricity
0.0001333
Mean motion
15.08843833 rev/d
Perigee alt
538.8 km
Apogee alt
540.7 km
Semi-major
6,917.9 km
B*
2.2220e-5
RAAN
317.0859°
Arg perigee
92.8596°
Mean anomaly
267.2549°
Rev number
24,024

§ Raw data

STARLINK-31851 51144U 22005AS  26144.88252169  .00000066  00000+0  22220-4 0  99952 51144  53.2160 317.0859 0001333  92.8596 267.2549 15.08843833240246

JSON: /api/v1/satellites/51144 · /tle

For live sub-satellite position, see the globe view (requires WebGL).

§ Visibility from observer

Set your observer location to see the next 7 days of passes ≥ 10°. The values pass through the URL so the page stays shareable.

No JS? Fill the form by hand. The geolocation button needs JavaScript.